Probability
10 6 2 1 0 0 0 0 0 0 0 0 0 0 0 0 0 0 0 0 0 0 0 0 0 0 0 0 0 0 0 0 0 0 0 0 0 0 0 0 0 0 0
13 8 4 1 0 0 0 0 0 0 0 0 0 0 0 0 0 0 0 0 0 0 0 0 0 0 0 0 0 0 0 0 0 0 0 0 0 0 0 0 0 0 0
14 10 4 1 0 0 0 0 0 0 0 0 0 0 0 0 0 0 0 0 0 0 0 0 0 0 0 0 0 0 0 0 0 0 0 0 0 0 0 0 0 0 0
14 9 5 3 1 0 0 0 0 0 0 0 0 0 0 0 0 0 0 0 0 0 0 0 0 0 0 0 0 0 0 0 0 0 0 0 0 0 0 0 0 0 0
14 9 6 5 2 0 0 0 0 0 0 0 0 0 0 0 0 0 0 0 0 0 0 0 0 0 0 0 0 0 0 0 0 0 0 0 0 0 0 0 0 0 0
16 13 9 6 3 1 0 0 0 0 0 0 0 0 0 0 0 0 0 0 0 0 0 0 0 0 0 0 0 0 0 0 0 0 0 0 0 0 0 0 0 0 0
27 23 16 12 9 5 2 0 0 0 0 1 0 0 0 0 0 0 0 0 0 0 0 0 0 0 0 0 0 0 0 0 0 0 1 2 1 0 0 0 0 0 0
42 35 25 20 16 10 5 1 1 1 1 1 1 1 1 0 0 0 0 0 0 0 0 0 0 0 0 0 0 0 0 0 0 0 1 3 2 0 0 0 0 0 0
50 40 27 20 16 11 6 4 4 4 3 3 3 3 3 2 1 1 2 1 1 1 0 0 0 0 0 0 0 0 0 0 0 0 1 3 3 1 0 0 0 0 0
49 40 27 19 14 8 5 7 9 8 6 6 6 6 6 5 4 5 6 5 4 2 1 1 1 1 1 0 0 0 0 0 0 1 4 9 9 4 1 0 0 0 0
53 46 36 28 17 7 9 16 15 11 10 10 10 11 10 7 8 13 20 22 17 11 7 5 6 5 3 1 1 1 0 0 0 3 12 22 21 12 5 1 0 0 0
60 53 47 40 26 15 23 32 24 19 22 19 19 25 25 20 20 28 43 48 39 27 20 18 17 13 7 6 6 5 2 1 0 6 22 36 34 23 11 4 1 0 0
57 53 53 52 40 34 43 46 35 32 38 35 34 43 46 43 43 48 59 64 55 42 33 32 31 22 14 13 14 12 6 2 1 10 29 43 41 30 18 8 3 1 0
53 52 59 63 58 55 56 52 43 43 48 48 49 55 59 61 61 61 64 64 57 48 41 40 41 33 25 24 23 19 11 4 4 13 31 43 43 36 27 18 9 3 1
59 61 67 72 72 68 63 57 51 50 51 55 58 60 63 66 65 63 62 60 55 48 44 44 43 40 36 34 31 26 18 12 10 16 28 39 41 39 35 28 19 10 5
67 69 72 75 76 74 67 61 57 56 56 58 62 62 62 63 62 60 57 53 49 45 43 41 41 40 39 36 32 27 24 20 18 19 25 34 38 38 37 34 30 22 16
70 72 71 69 72 74 68 61 57 56 57 58 57 57 55 54 53 53 50 44 39 39 36 34 33 33 31 29 27 24 24 24 22 21 23 29 32 33 33 35 37 34 28
69 69 66 63 65 67 61 52 47 48 50 48 45 46 45 41 41 43 41 35 32 32 29 26 27 25 23 22 22 22 22 22 21 20 21 25 27 27 29 33 39 40 36
62 62 61 60 59 53 44 37 33 34 35 34 34 37 36 32 31 33 32 30 28 27 25 24 25 23 20 17 16 16 18 19 19 18 20 20 21 24 26 29 37 41 38
53 54 55 56 51 41 33 30 29 28 26 25 25 28 28 25 25 26 25 25 25 24 24 24 25 24 19 14 11 10 13 16 17 17 18 18 18 21 23 28 37 42 40
41 43 46 47 44 38 34 34 33 30 25 22 21 20 19 18 19 20 20 22 24 23 21 20 21 19 16 12 10 8 9 12 13 14 16 18 18 20 23 30 40 46 45
24 28 35 39 39 36 34 33 31 27 22 18 17 16 14 14 15 15 16 20 23 21 16 14 13 13 11 10 9 7 5 5 6 9 14 17 20 24 27 31 40 45 44
14 18 26 33 33 29 25 22 20 18 15 13 15 16 15 12 12 13 15 18 20 17 14 11 11 11 9 7 6 4 3 3 3 6 10 14 22 29 30 29 33 38 38
11 14 21 27 26 20 16 14 12 10 9 11 15 16 14 10 9 10 13 15 15 14 13 12 12 12 10 6 4 3 3 4 3 4 7 10 19 27 28 23 24 31 35
8 13 18 20 19 14 10 9 9 9 9 11 14 13 10 8 8 8 9 11 11 12 12 12 12 11 10 6 3 2 3 3 2 3 4 6 10 18 22 19 20 30 36
7 11 14 16 15 10 7 8 9 10 11 11 10 9 7 8 8 8 8 10 11 11 12 13 11 9 8 6 2 2 2 2 2 1 1 2 4 11 18 19 22 31 38
Wind_Speed
18 18 18 16 15 14 14 14 13 13 12 12 12 12 12 12 12 12 11 11 11 10 10 9 9 8 9 9 10 10 10 10 10 11 12 12 11 10 9 11 12 12 15
21 19 18 16 15 14 13 13 12 12 12 12 11 11 11 11 11 10 10 10 10 10 9 9 9 9 9 9 9 9 8 8 8 9 11 11 10 8 7 8 12 11 14
21 18 17 15 15 14 13 12 12 12 12 11 11 11 10 10 10 10 9 9 9 9 9 9 9 9 9 9 8 7 6 6 6 7 9 8 9 10 10 14 16 14 13
20 17 16 16 15 14 13 12 12 12 11 11 11 10 10 10 9 9 8 8 8 8 9 8 8 9 9 8 7 6 4 3 3 5 4 6 9 11 12 14 14 14 13
19 17 17 16 15 14 13 12 12 11 11 11 10 10 9 9 9 8 8 7 7 7 8 8 8 8 8 7 6 4 1 1 3 6 1 8 9 11 12 13 13 13 13
19 18 17 16 15 14 13 12 11 11 10 10 10 9 9 8 8 8 7 7 6 6 7 7 7 7 7 6 5 2 1 4 6 4 3 9 9 10 12 12 12 12 12
19 18 17 16 15 14 13 12 11 11 10 10 9 9 8 8 7 7 7 6 6 6 6 6 6 6 6 5 3 1 3 6 7 3 4 10 9 11 11 11 11 11 11
20 19 16 16 15 14 12 12 11 11 10 10 9 8 8 7 7 7 7 7 7 6 6 6 6 6 5 4 3 2 4 8 6 2 6 10 13 12 11 10 10 10 10
20 18 15 14 13 13 12 11 11 10 9 9 8 8 8 7 7 7 7 7 7 7 7 7 7 7 6 5 4 4 5 7 8 3 7 9 13 13 12 11 10 10 10
18 17 15 14 12 11 11 11 11 10 10 9 9 9 8 8 8 8 9 9 8 7 7 7 7 7 7 7 7 6 7 8 8 4 5 10 16 15 13 11 11 10 10
14 13 14 14 11 11 12 12 12 11 10 10 9 10 9 7 9 9 11 11 11 9 8 8 8 8 8 9 10 9 7 6 8 2 4 15 17 16 14 13 11 11 11
12 11 10 11 10 9 8 10 7 8 8 8 7 8 7 6 4 5 10 13 13 11 10 10 9 9 8 6 9 10 5 7 7 2 6 17 17 17 16 14 13 12 12
9 8 10 8 5 4 4 6 3 3 5 7 6 6 4 3 2 2 3 6 7 9 7 7 8 6 7 5 4 6 6 5 4 2 8 17 16 16 16 15 14 13 13
7 7 8 8 4 2 2 2 2 2 3 4 4 4 3 2 2 1 0 1 3 3 4 3 4 6 6 5 5 6 6 4 3 1 7 15 16 16 16 16 15 15 14
6 6 7 6 5 3 2 0 0 0 0 0 1 2 2 1 1 0 0 0 1 1 2 3 3 4 4 4 4 5 5 5 4 1 4 12 14 15 16 16 16 16 16
7 7 6 6 5 4 2 0 0 0 1 1 1 1 1 1 1 1 2 2 2 2 1 2 3 3 4 3 5 5 5 5 4 3 4 8 13 15 15 16 16 17 18
7 7 6 6 5 4 2 0 1 1 1 1 0 0 0 1 1 1 2 2 2 2 3 2 4 4 4 5 6 6 6 5 5 5 4 4 7 12 15 16 17 17 18
8 8 6 5 5 4 3 1 0 1 0 0 0 1 1 1 1 2 2 2 2 2 3 3 4 4 4 4 4 5 5 4 6 6 5 5 5 6 11 17 18 18 19
8 8 6 6 5 4 2 1 1 0 0 0 0 1 1 1 1 2 2 2 2 3 3 5 3 3 4 4 4 5 5 6 6 8 7 7 6 6 6 12 19 19 20
8 7 7 6 5 3 2 0 0 0 0 0 1 2 1 1 1 1 3 3 3 3 3 3 4 3 4 4 5 6 5 6 5 6 8 8 8 10 9 9 10 14 20
7 6 5 5 3 2 2 2 1 1 1 1 0 2 1 1 1 2 3 1 2 3 3 3 3 4 4 3 3 4 5 7 7 6 6 6 8 10 9 9 8 7 9
6 5 5 4 4 3 2 2 1 1 2 1 1 1 1 1 2 3 2 2 2 2 3 3 2 2 3 3 3 3 3 4 5 8 7 7 8 7 8 11 9 9 7
6 5 5 5 4 4 4 3 3 2 2 1 1 0 1 2 2 2 3 2 3 3 2 2 2 3 3 3 3 3 3 3 2 2 5 6 6 5 5 6 8 9 10
5 6 6 5 4 4 4 4 5 4 4 4 3 2 3 3 3 2 2 2 2 3 4 4 2 2 3 4 3 4 4 2 2 3 3 4 5 5 5 6 6 8 9
4 5 6 5 4 3 3 4 4 5 5 5 5 4 4 4 3 3 2 1 2 3 4 4 4 4 3 4 3 3 3 3 4 3 4 3 3 3 5 5 4 5 7
4 4 6 5 3 3 3 4 4 5 5 5 5 5 4 3 3 3 3 2 3 3 4 4 4 5 4 5 4 4 4 3 3 3 4 3 3 4 4 4 4 4 4
Wind_Direction
123 130 133 132 133 133 135 136 135 131 127 124 120 115 110 107 104 101 99 96 95 95 94 91 90 87 82 80 79 79 81 84 89 92 93 92 90 93 102 113 108 99 104
124 130 133 132 133 134 135 137 137 135 131 128 126 122 118 114 110 107 104 102 99 98 96 94 92 92 90 87 87 88 89 93 101 108 111 102 93 89 97 106 100 107 108
123 130 133 132 133 134 134 135 138 138 136 133 130 128 124 121 118 114 109 105 101 99 98 97 97 96 95 94 94 95 99 108 121 140 149 123 104 90 96 102 106 112 111
126 135 134 133 133 133 134 134 136 139 138 135 134 133 131 129 127 122 115 112 107 103 102 99 98 97 98 97 98 100 108 126 159 196 198 128 112 100 103 109 113 117 116
128 130 129 135 133 134 134 134 135 137 138 138 137 138 137 136 134 129 125 123 117 111 109 106 103 102 104 105 104 105 124 210 248 252 152 98 99 113 112 115 119 121 120
130 128 131 134 133 133 135 135 135 136 137 139 140 142 143 142 139 137 136 133 126 120 116 115 114 112 112 114 117 126 279 290 281 253 135 112 112 123 122 124 125 124 123
129 126 133 135 134 135 136 138 138 138 140 142 144 146 148 149 149 150 149 145 139 133 128 127 125 125 127 128 135 181 280 296 279 286 110 109 121 130 131 131 131 129 129
126 126 132 136 137 138 139 140 143 145 147 149 150 152 155 158 162 164 163 162 157 151 148 145 143 143 149 154 168 224 276 294 291 284 121 117 133 136 138 139 138 138 137
124 127 138 141 142 144 145 146 147 150 153 156 160 163 168 172 177 180 177 173 169 167 167 165 164 166 170 178 196 230 268 288 293 282 126 127 143 143 145 148 150 148 146
124 133 143 146 149 155 155 156 158 161 165 169 174 179 183 189 195 197 193 187 183 182 183 184 184 185 188 195 206 224 253 280 271 258 129 144 151 150 152 157 161 161 159
125 132 142 145 154 166 165 160 167 173 179 181 186 193 197 206 203 201 209 187 188 192 196 200 200 199 201 207 212 218 234 252 254 237 125 149 156 156 159 164 169 170 169
128 135 138 141 158 173 166 150 176 182 178 197 194 188 204 224 224 209 180 184 190 196 201 207 209 209 214 213 211 213 225 236 259 211 142 158 161 162 165 170 175 178 178
126 132 131 132 141 151 132 149 177 180 166 200 207 191 207 230 245 237 160 174 189 197 206 206 205 217 219 220 192 196 224 239 243 205 154 164 168 169 171 176 181 184 186
132 134 127 130 128 99 97 137 183 181 170 195 192 194 196 208 239 263 321 166 186 197 208 206 203 215 226 228 213 206 219 234 245 153 158 168 175 176 177 182 187 190 191
113 110 103 114 115 100 82 58 150 41 211 195 146 181 184 197 231 273 278 267 262 232 200 226 228 230 237 241 241 229 234 248 263 238 159 178 185 183 183 187 193 197 198
128 118 108 105 108 104 90 28 13 20 75 4 50 113 160 216 214 234 233 230 246 249 244 237 240 236 232 235 249 253 251 248 253 228 183 191 197 191 190 193 198 202 204
104 105 111 115 113 117 120 355 46 2 40 63 99 176 170 254 225 248 252 240 242 248 248 246 254 242 236 228 232 241 247 247 254 249 223 199 200 204 202 202 204 206 207
87 84 83 97 105 105 98 62 27 348 30 215 174 139 154 244 246 252 253 249 257 251 234 236 239 247 243 238 234 237 239 237 241 241 238 225 210 208 213 213 211 210 210
87 84 79 75 82 86 98 115 148 158 2 283 118 84 80 249 243 254 260 250 251 255 250 256 236 230 243 240 239 237 235 231 227 231 227 228 226 216 210 214 214 212 214
88 86 86 81 74 72 81 114 106 95 14 27 99 104 66 298 267 267 257 247 251 253 256 254 261 247 243 240 249 255 243 235 222 222 224 223 219 218 215 215 209 214 215
98 97 93 87 73 55 48 6 6 21 350 331 113 97 50 345 350 289 299 287 251 252 257 260 259 264 252 234 240 260 251 235 223 221 219 226 222 215 212 209 201 202 209
120 120 111 93 68 43 36 342 307 332 296 272 49 81 40 354 331 310 340 320 328 310 280 268 256 265 276 258 238 257 266 255 230 224 210 217 227 220 213 214 203 199 203
119 104 91 77 63 39 9 349 354 332 299 4 6 75 28 345 324 322 322 322 327 310 303 296 271 265 272 279 247 245 259 266 303 255 227 223 217 215 211 207 206 201 204
119 112 98 84 65 36 9 12 351 340 346 349 346 6 360 322 298 289 282 299 321 313 310 301 331 299 284 280 271 246 245 268 279 306 292 254 229 221 223 222 216 202 205
113 108 105 91 71 43 7 11 355 356 349 348 345 338 335 305 288 283 292 346 332 303 311 322 323 312 297 288 288 284 269 253 232 240 276 286 276 235 218 216 218 207 204
116 102 98 94 70 37 8 12 9 356 343 329 321 322 329 320 324 352 9 16 321 312 321 313 304 294 286 291 297 296 287 270 249 243 253 261 259 253 226 208 206 205 207